#timestamp,LO_Frequency,Hit,StdDev 
1565413215.7,286046997.1,N
1565413235.6,286046997.5,N
1565413255.4,286046996.9,N
1565413275.3,286046996.7,N
1565413295.1,286046996.5,N
1565413315.8,286046997.0,N
1565413335.7,286046996.8,N
1565413355.5,286046997.2,N
1565413375.4,286046997.3,N
1565413395.2,286046995.4,Y
1565413415.0,286046999.6,P
1565413415.9,286046999.6,N
1565413435.8,286046999.6,N
1565413455.6,286046999.6,N
1565413475.5,286046997.8,Y
1565413495.3,286046997.0,P
1565413515.1,286046999.0,N
1565413535.9,286046999.1,N
1565413555.7,286046999.5,N
1565413575.6,286046997.2,Y
1565413595.4,286046999.0,P
1565413615.2,286046998.9,P
1565413635.1,286046999.3,P
1565413636.0,286046999.3,Y
1565413655.8,286046998.2,P
1565413675.6,286046999.1,N
1565413695.5,286046998.3,P
1565413715.3,286046999.8,N
1565413735.2,286047002.1,Y
1565413755.9,286047003.6,P
1565413775.7,286047003.4,N
1565413795.6,286047003.1,N
1565413815.4,286047003.6,N
1565413835.3,286047001.7,N
1565413855.1,286047002.0,N
1565413856.0,286047002.0,N
1565413875.8,286047001.5,N
1565413895.7,286047002.0,N
1565413915.5,286046999.8,N
1565413935.3,286047000.0,N
1565413955.2,286047002.2,N
1565413975.0,286047001.8,N
1565413975.9,286047001.8,N
1565413995.8,286047001.7,N
1565414015.6,286047002.7,N
1565414035.4,286047002.5,N
1565414055.3,286047002.6,N
1565414075.1,286047002.8,N
1565414095.9,286047001.6,N
1565414115.7,286047002.7,N
1565414135.5,286047000.3,N
1565414155.4,286047000.1,N
1565414175.2,286047000.1,N
1565414195.0,286047001.9,N
1565414195.9,286047001.9,N
1565414215.8,286047001.9,N
1565414235.6,286047002.1,N
1565414255.5,286047002.5,N
1565414275.3,286047001.9,N
1565414295.1,286047001.9,N
1565414315.9,286047001.7,N
1565414335.7,286047002.0,N
1565414355.5,286047001.9,N
1565414375.4,286047004.4,Y
1565414395.2,286047002.7,P
1565414415.1,286047002.6,P
1565414416.0,286047002.6,P
1565414435.8,286047002.4,Y
1565414455.6,286046998.8,P
1565414475.5,286047000.6,N
1565414495.3,286047000.4,N
1565414515.2,286047000.9,N
1565414535.9,286047000.4,N
1565414555.7,286046999.9,N
1565414575.6,286047000.2,N
1565414595.4,286047001.1,N
1565414615.2,286046999.0,N
1565414665.1,286046998.1,E
1565414675.0,286047002.0,N
1565414675.9,286047002.0,P
1565414695.8,286047000.2,P
1565414715.6,286046999.8,N
1565414735.4,286047000.4,N
1565414755.3,286047000.1,N
1565414775.1,286047000.4,N
1565414795.9,286047002.7,Y
1565414815.7,286046999.8,P
1565414835.6,286046999.8,N
1565414855.4,286047002.3,P
1565414875.2,286047000.1,N
1565414895.1,286047000.6,N
1565414896.0,286047000.6,N
1565414915.8,286047000.4,N
1565414935.6,286047000.5,N
1565414955.5,286046999.7,N
1565414975.3,286047001.5,N
1565414995.2,286047001.5,N
1565415015.9,286047002.6,Y
1565415035.7,286047000.1,P
1565415055.6,286047002.6,P
1565415075.4,286047002.7,N
1565415095.3,286047002.1,N
1565415115.1,286047000.3,N
1565415116.0,286047000.3,N
1565415135.8,286047000.0,N
1565415155.7,286047002.7,N
1565415175.5,286047002.2,N
1565415195.3,286047001.8,N
1565415215.2,286047002.0,N
1565415235.0,286047001.8,N
1565415235.9,286047001.8,N
1565415255.8,286047004.1,Y
1565415275.6,286046999.7,P
1565415295.4,286047000.0,N
1565415315.3,286047000.5,N
1565415335.1,286047000.5,N
1565415355.9,286046998.5,N
1565415375.7,286046998.9,N
1565415395.5,286047000.6,N
1565415415.4,286047000.4,N
1565415435.2,286046999.9,N
1565415455.0,286047000.5,N
1565415456.0,286047000.5,N
1565415475.8,286047001.2,N
1565415495.6,286046998.2,N
1565415515.5,286047001.2,N
1565415535.3,286047000.8,N
1565415585.2,286047000.1,E
1565415595.1,286047000.0,N
1565415596.0,286047000.0,P
1565415615.8,286047000.9,P
1565415635.7,286046998.3,Y
1565415655.5,286046998.8,P
1565415675.4,286047001.1,N
1565415695.2,286047000.7,N
1565415715.0,286047001.0,N
1565415715.9,286047001.0,N
1565415735.8,286046999.9,N
1565415755.6,286047002.8,Y
1565415775.4,286046999.8,P
1565415795.3,286047002.8,P
1565415815.1,286047001.0,N
1565415835.9,286046999.9,N
1565415855.7,286047000.6,N
1565415875.5,286047002.3,N
1565415895.4,286047000.3,N
1565415915.4,286047001.2,N
1565415935.2,286046998.5,N
1565415955.0,286047001.2,N
1565415955.9,286047001.2,N
1565415975.8,286047001.0,N
1565415995.6,286047000.6,N
1565416015.5,286047000.9,N
1565416035.3,286047000.6,N
1565416055.1,286047001.0,N
1565416075.9,286046999.4,N
1565416095.7,286046999.1,N
1565416115.6,286046999.3,N
1565416135.4,286047001.1,N
1565416155.2,286047001.2,N
1565416175.1,286046999.0,N
1565416176.0,286046999.0,N
1565416195.8,286046998.2,N
1565416215.6,286047001.1,N
1565416235.5,286046998.2,N
1565416255.3,286047000.8,N
1565416275.2,286047000.5,N
1565416295.9,286046998.4,N
1565416315.7,286046999.3,N
1565416335.6,286046999.5,N
1565416355.4,286046997.0,N
1565416375.3,286046999.1,N
1565416395.1,286046999.6,N
1565416396.0,286046999.6,N
1565416415.8,286046997.4,N
1565416435.7,286046999.4,N
1565416455.5,286046999.2,N
1565416475.3,286046996.6,N
1565416495.2,286046996.9,N
1565416515.0,286046996.5,N
1565416515.9,286046996.5,N
1565416535.8,286046996.9,N
1565416555.6,286046996.7,N
1565416575.4,286046997.6,N
1565416595.3,286046995.4,Y
1565416615.1,286046996.6,P
1565416635.9,286046997.1,N
1565416655.7,286046999.5,N
1565416675.5,286046999.1,N
1565416695.4,286046996.7,N
1565416715.2,286046996.6,N
1565416735.1,286046996.5,N
1565416736.0,286046996.5,N
1565416755.8,286046996.5,N
1565416775.6,286046997.5,N
1565416795.5,286046997.6,N
